Regional Weather Roundup
Issued by NWS Lake Charles, LA

Home | Current Version | Previous Version | Text Only | Print | Product List | Glossary On
Versions: 1 2 3 4 5 6 7 8 9 10 11 12 13 14 15 16 17 18 19 20 21 22 23 24 25 26 27 28 29 30 31 32 33 34 35 36 37 38 39 40 41 42 43 44 45 46 47 48 49 50
000
ASUS44 KLCH 020610
RWRLCH
RWRLCH
REGIONAL WEATHER ROUNDUP
NATIONAL WEATHER SERVICE LAKE CHARLES LA
100 AM CDT SUN AUG 02 2015

Note: "fair" indicates few or no clouds below 12,000 feet with no
significant weather and/or obstructions to visibility.


ACROSS SOUTHEAST TEXAS

CITY           SKY/WX    TMP DP  RH WIND       PRES   REMARKS
BEAUMONT       CLEAR     74  71  91 NW3       29.91S
BEAUMONT CITY    N/A     73  69  88 CALM      29.93S
ORANGE         CLEAR     71  65  82 CALM      29.93S
JASPER         CLEAR     73  67  80 CALM      29.96S
$$

ACROSS CENTRAL LOUISIANA

CITY           SKY/WX    TMP DP  RH WIND       PRES   REMARKS
LEESVILLE      CLEAR     73  64  73 NE5       29.92S
FULLERTON        N/A     70  64  81 CALM      29.91S
ALEXANDRIA INT CLEAR     70  67  90 CALM      29.91S
ESLER FIELD    CLEAR     71  65  81 CALM      29.92F
DERIDDER         N/A     72  64  77 CALM      29.95S
OAKDALE        CLEAR     66  65  94 CALM      29.92S
OPELOUSAS        N/A     70  69  98 CALM      29.91S
$$

ACROSS SOUTHWEST AND SOUTH CENTRAL LOUISIANA

CITY           SKY/WX    TMP DP  RH WIND       PRES   REMARKS
SULPHUR        CLEAR     73  65  78 CALM      29.92F
LAKE CHARLES   CLEAR     73  68  84 CALM      29.91S
CHENNAULT INT  CLEAR     75  66  72 CALM      29.92S
CAMERON PHI      N/A     77  66  69 NE6       29.94S
DEQUINCY         N/A     69  64  84 CALM      29.93S
JENNINGS         N/A     75  66  73 CALM      29.91F
LAFAYETTE      CLEAR     75  72  90 CALM      29.90F
NEW IBERIA     CLEAR     76  69  79 N3        29.91F
ABBEVILLE        N/A     72  68  88 CALM      29.90F
PATTERSON      CLEAR     75  72  88 CALM      29.92R
SALT POINT       N/A     79  72  79 MISG      29.89S
$$

SELECTED SITES ACROSS THE REGION

CITY           SKY/WX    TMP DP  RH WIND       PRES   REMARKS
HOUSTON BUSH   PTCLDY    75  68  78 CALM      29.92R
HOUSTON HOBBY  CLEAR     79  70  74 CALM      29.91S
GALVESTON      CLEAR     83  74  74 CALM      29.93R
COLLEGE STAT   CLEAR     81  62  52 E3        29.93S
CONROE         CLEAR     71  64  78 CALM      29.94R
HUNTSVILLE     CLEAR     75  63  66 CALM      29.94S
LUFKIN         CLEAR     74  63  68 E5        29.94R
SHREVEPORT     PTCLDY    75  63  66 CALM      29.94S
MONROE         CLEAR     71  65  81 NE3       29.95S
NATCHEZ MS     CLEAR     70  64  83 CALM      29.93F
BATON ROUGE    CLEAR     73  69  87 CALM      29.91R
N.O. INTL ARPT CLEAR     81  64  56 CALM      29.90R
SLIDELL        CLEAR     70  68  93 CALM      29.89S
$$

MARINE REPORTS

STATION/POSITION TIME  TEMP    WIND        PRES    VSBY  WAVE
                       AIR SEA DIR/SP/G                  HT/PER
                 (UTC) (F)     (DEG/KT/KT) (MB)    (MI)  (FT/S)
BUOY 30 S HIGH I 0550   87 86  170/  2/  4 1012.5R         1/ 4
SEA RIM ST PARK  0600   80     340/  6/  6 1013.6R
PORT ARTHUR      0500      88   90/  1/  6 1012.9F
SABINE PASS N    0500   82 88   70/  6/  7 1012.9F
TEXAS POINT      NOT AVBL
CALCASIEU PASS   0500   82 87   90/  7/  8 1012.0F
LK CHARLES BEACH 0500   82 89                N/A
MARSH ISLAND     NOT AVBL
FRESH WATER LOCK 0500   80 87  320/  4/  4 1012.6F
AMERADA PASS     0500   81 87  330/  3/  3 1012.6R
$$


USA.gov is the U.S. government's official web portal to all federal, state and local government web resources and services.